Pottsboro, TX

7:03 AM CST on February 23, 2017 (GMT -0600)
Sherman - Denison

Weather History for KGYI - November, 2012

Change the Weather History Date:

Sunday, November 4, 2012

  Actual Average (KDFW) Record (KDFW)
Temperature  
Mean Temperature 60 °F -  
Max Temperature 71 °F 67 °F 88 °F (1987)
Min Temperature 50 °F 49 °F 25 °F (1991)
Degree Days  
Heating Degree Days 4    
Growing Degree Days 10 (Base 50)    
Moisture  
Dew Point 44 °F    
Average Humidity 58    
Maximum Humidity 94    
Minimum Humidity 41    
Precipitation  
Precipitation 0.00 in - - ()
Sea Level Pressure  
Sea Level Pressure 30.12 in    
Wind  
Wind Speed 5 mph (NE)    
Max Wind Speed 10 mph    
Max Gust Speed -    
Visibility 8 miles    
Events      
Averages and records for this station are not official NWS values.
T = Trace of Precipitation, MM = Missing Value Source: NWS Daily Summary

Daily Weather History Graph

Daily Weather History Graph

Search for Another Location

Airport or City:

Trip Planner

Search our weather history database for the weather conditions in past years. The results will help you decide how hot, cold, wet, or windy it might be!

Date:

Astronomy

Nov. 04, 2012 Rise Set
Actual Time 6:48 AM CST 5:31 PM CST
Civil Twilight 6:22 AM CST 5:57 PM CST
Nautical Twilight 5:53 AM CST 6:26 PM CST
Astronomical Twilight 5:24 AM CST 6:55 PM CST
Moon 10:12 PM CST (11/4) 11:30 AM CST (11/4)
Length of Visible Light 11h 34m
Length of Day
10h 42m
Waning Gibbous, 72% of the Moon is Illuminated
Nov 4
Waning Gibbous
Nov 6
Last Quarter
Nov 13
New
Nov 20
First Quarter
Nov 28
Full

Hourly Weather History & Observations

Time (CST) Temp. Dew Point Humidity Pressure Visibility Wind Dir Wind Speed Gust Speed Precip Events Conditions
12:15 AM 55.4 °F 37.4 °F 51% 30.13 in 1.5 mi NNE 5.8 mph - N/A   Haze
12:35 AM 55.4 °F 37.4 °F 51% 30.14 in 1.2 mi ENE 4.6 mph - N/A   Haze
12:55 AM 55.4 °F 37.4 °F 51% 30.14 in 4.0 mi NNE 4.6 mph - N/A   Haze
1:15 AM 57.2 °F 37.4 °F 48% 30.14 in 2.5 mi NNE 5.8 mph - N/A   Haze
1:35 AM 55.4 °F 37.4 °F 51% 30.13 in 1.2 mi NNE 6.9 mph - N/A   Haze
1:55 AM 53.6 °F 37.4 °F 54% 30.13 in 2.5 mi NNE 6.9 mph - N/A   Haze
1:15 AM 55.4 °F 37.4 °F 51% 30.13 in 4.0 mi NNE 3.5 mph - N/A   Haze
1:35 AM 55.4 °F 41.0 °F 58% 30.12 in 5.0 mi NNE 5.8 mph - N/A   Haze
1:55 AM 55.4 °F 41.0 °F 58% 30.13 in 2.5 mi NNE 5.8 mph - N/A   Haze
2:15 AM 55.4 °F 41.0 °F 58% 30.13 in 5.0 mi North 6.9 mph - N/A   Haze
2:35 AM 55.4 °F 41.0 °F 58% 30.13 in 5.0 mi NNE 8.1 mph - N/A   Haze
2:55 AM 55.4 °F 39.2 °F 54% 30.12 in 2.5 mi NE 8.1 mph - N/A   Haze
3:15 AM 55.4 °F 39.2 °F 54% 30.12 in 2.0 mi NNE 5.8 mph - N/A   Haze
3:35 AM 55.4 °F 41.0 °F 58% 30.13 in 4.0 mi North 8.1 mph - N/A   Haze
3:55 AM 53.6 °F 39.2 °F 58% 30.12 in 2.5 mi NE 3.5 mph - N/A   Haze
4:15 AM 53.6 °F 39.2 °F 58% 30.13 in 2.0 mi North 10.4 mph - N/A   Haze
4:35 AM 53.6 °F 39.2 °F 58% 30.13 in 10.0 mi North 8.1 mph - N/A   Scattered Clouds
4:55 AM 53.6 °F 41.0 °F 62% 30.14 in 10.0 mi North 6.9 mph - N/A   Mostly Cloudy
5:15 AM 53.6 °F 39.2 °F 58% 30.14 in 10.0 mi NNE 5.8 mph - N/A   Scattered Clouds
5:35 AM 53.6 °F 41.0 °F 62% 30.14 in 10.0 mi NNE 4.6 mph - N/A   Scattered Clouds
5:55 AM 51.8 °F 39.2 °F 62% 30.14 in 10.0 mi NNE 3.5 mph - N/A   Clear
6:15 AM 51.8 °F 39.2 °F 62% 30.15 in 10.0 mi Calm Calm - N/A   Scattered Clouds
6:35 AM 51.8 °F 39.2 °F 62% 30.14 in 10.0 mi ENE 3.5 mph - N/A   Mostly Cloudy
6:55 AM 51.8 °F 37.4 °F 58% 30.15 in 10.0 mi NNE 3.5 mph - N/A   Scattered Clouds
7:15 AM 50.0 °F 39.2 °F 66% 30.16 in 10.0 mi NNE 3.5 mph - N/A   Mostly Cloudy
7:35 AM 50.0 °F 39.2 °F 66% 30.17 in 10.0 mi North 4.6 mph - N/A   Scattered Clouds
7:55 AM 51.8 °F 39.2 °F 62% 30.17 in 7.0 mi NE 4.6 mph - N/A   Scattered Clouds
8:15 AM 51.8 °F 39.2 °F 62% 30.17 in 10.0 mi NNE 4.6 mph - N/A   Scattered Clouds
8:35 AM 53.6 °F 41.0 °F 62% 30.18 in 7.0 mi NE 6.9 mph - N/A   Clear
8:55 AM 55.4 °F 41.0 °F 58% 30.18 in 10.0 mi NE 5.8 mph - N/A   Clear
9:15 AM 57.2 °F 41.0 °F 55% 30.18 in 10.0 mi NE 6.9 mph - N/A   Clear
9:35 AM 59.0 °F 42.8 °F 55% 30.18 in 10.0 mi ENE 8.1 mph - N/A   Clear
9:55 AM 60.8 °F 42.8 °F 52% 30.17 in 10.0 mi NE 6.9 mph - N/A   Clear
10:15 AM 60.8 °F 44.6 °F 55% 30.17 in 10.0 mi East 8.1 mph - N/A   Clear
10:35 AM 62.6 °F 44.6 °F 52% 30.18 in 10.0 mi East 6.9 mph - N/A   Clear
10:55 AM 62.6 °F 44.6 °F 52% 30.17 in 10.0 mi East 8.1 mph - N/A   Clear
11:15 AM 64.4 °F 46.4 °F 52% 30.17 in 10.0 mi Calm Calm - N/A   Clear
11:35 AM 64.4 °F 46.4 °F 52% 30.17 in 10.0 mi ESE 6.9 mph - N/A   Clear
11:55 AM 66.2 °F 46.4 °F 49% 30.16 in 10.0 mi ESE 4.6 mph - N/A   Clear
12:15 PM 66.2 °F 46.4 °F 49% 30.15 in 10.0 mi Calm Calm - N/A   Clear
12:35 PM 68.0 °F 46.4 °F 46% 30.13 in 10.0 mi East 4.6 mph - N/A   Clear
12:55 PM 68.0 °F 46.4 °F 46% 30.12 in 10.0 mi SE 5.8 mph - N/A   Clear
1:15 PM 68.0 °F 46.4 °F 46% 30.11 in 10.0 mi SSE 3.5 mph - N/A   Clear
1:35 PM 69.8 °F 46.4 °F 43% 30.10 in 10.0 mi Calm Calm - N/A   Clear
1:55 PM 69.8 °F 46.4 °F 43% 30.10 in 10.0 mi Calm Calm - N/A   Clear
2:15 PM 69.8 °F 46.4 °F 43% 30.09 in 10.0 mi Calm Calm - N/A   Clear
2:35 PM 71.6 °F 46.4 °F 41% 30.08 in 10.0 mi ESE 4.6 mph - N/A   Clear
2:55 PM 69.8 °F 46.4 °F 43% 30.08 in 10.0 mi Calm Calm - N/A   Clear
3:15 PM 71.6 °F 46.4 °F 41% 30.07 in 10.0 mi SSE 5.8 mph - N/A   Clear
3:35 PM 69.8 °F 46.4 °F 43% 30.07 in 10.0 mi Calm Calm - N/A   Clear
3:55 PM 71.6 °F 46.4 °F 41% 30.07 in 10.0 mi Calm Calm - N/A   Clear
4:15 PM 69.8 °F 46.4 °F 43% 30.07 in 10.0 mi Calm Calm - N/A   Clear
4:35 PM 69.8 °F 46.4 °F 43% 30.07 in 10.0 mi Calm Calm - N/A   Clear
4:55 PM 69.8 °F 48.2 °F 46% 30.07 in 10.0 mi Calm Calm - N/A   Clear
5:15 PM 68.0 °F 50.0 °F 52% 30.07 in 10.0 mi Calm Calm - N/A   Clear
5:35 PM 66.2 °F 50.0 °F 56% 30.07 in 10.0 mi Calm Calm - N/A   Clear
5:55 PM 62.6 °F 50.0 °F 63% 30.08 in 10.0 mi Calm Calm - N/A   Clear
6:15 PM 62.6 °F 50.0 °F 63% 30.08 in 10.0 mi North 3.5 mph - N/A   Clear
6:35 PM 60.8 °F 50.0 °F 68% 30.08 in 10.0 mi NNE 3.5 mph - N/A   Clear
6:55 PM 60.8 °F 50.0 °F 68% 30.08 in 10.0 mi NE 3.5 mph - N/A   Clear
7:15 PM 60.8 °F 50.0 °F 68% 30.08 in 10.0 mi Calm Calm - N/A   Clear
7:35 PM 60.8 °F 50.0 °F 68% 30.08 in 10.0 mi ESE 3.5 mph - N/A   Clear
7:55 PM 60.8 °F 50.0 °F 68% 30.08 in 10.0 mi East 3.5 mph - N/A   Clear
8:15 PM 60.8 °F 51.8 °F 72% 30.09 in 10.0 mi East 3.5 mph - N/A   Clear
8:35 PM 59.0 °F 51.8 °F 77% 30.10 in 10.0 mi East 3.5 mph - N/A   Clear
8:55 PM 59.0 °F 53.6 °F 82% 30.10 in 10.0 mi ESE 4.6 mph - N/A   Clear
9:15 PM 59.0 °F 53.6 °F 82% 30.10 in 10.0 mi East 4.6 mph - N/A   Clear
9:35 PM 57.2 °F 53.6 °F 88% 30.10 in 10.0 mi East 4.6 mph - N/A   Clear
9:55 PM 59.0 °F 53.6 °F 82% 30.09 in 10.0 mi ESE 5.8 mph - N/A   Clear
10:15 PM 57.2 °F 51.8 °F 82% 30.10 in 10.0 mi East 3.5 mph - N/A   Clear
10:35 PM 55.4 °F 51.8 °F 88% 30.10 in 10.0 mi East 3.5 mph - N/A   Clear
10:55 PM 55.4 °F 53.6 °F 94% 30.09 in 10.0 mi East 3.5 mph - N/A   Clear